Location: Unspecified
(38.0989°N, 0.6729°W)
Time: 13:29:53
(UTC+01:00)

ISS - Pass Details

Date: 27 November 2017
Orbit: 403 x 407 km, 51.6° (Epoch: 12 December)

Event Time Altitude Azimuth Distance (km) Brightness Sun altitude
Rises 19:00:09 0° 222° (SW) 2,316 1.1 -14.8°
Reaches altitude 10° 19:02:14 10° 219° (SW) 1,459 -0.2 -15.1°
Maximum altitude 19:05:28 63° 138° (SE) 456 -3.8 -15.8°
Enters shadow 19:06:25 40° 74° (ENE) 609 -3.5 -15.9°
